Torna al catalogo

STARLINK-6354

AttivoComunicazioniVLEO
NORAD 56784·PAYLOAD·🇺🇸 United States

Lanciato May 31, 2023 da Vandenberg Space Force Base

Loading…

Prossimi Passaggi (prossime 24 ore)

TLE

AggiornatoSource: CelesTrak SupGP

Epoca: Sep 14, 2026, 20:39 UTC

1 56784C 23078T   26257.86090278  .00692510  00000+0  52764-1 0  2576
2 56784  70.0007 207.5771 0003071 266.5918 224.7481 15.01630241    15

Traccia STARLINK-6354 in tempo reale con AllMySat

Download on the App Store